Location: Elaina
(34.1445°N, 106.7742°W)
Time: 23:05:29
(UTC+00:00)

NOSS 3-1 (C) - Visible Passes

Search period start: 14 March 2026 00:00
Search period end: 24 March 2026 00:00
Orbit: 618 x 1583 km, 63.4° (Epoch: 10 January)

Date Brightness Start Highest point End Pass type
(mag) Time Alt. Az. Time Alt. Az. Time Alt. Az.
15 Mar 6.0 12:28:11 10° N 12:34:31 29° NE 12:41:56 10° ESE visible
16 Mar 6.2 11:42:34 10° N 11:47:36 19° NE 11:53:18 10° E visible
17 Mar 6.5 10:57:41 10° NNE 11:00:28 12° NE 11:03:26 10° ENE visible
17 Mar 5.1 12:45:22 10° NNW 12:52:45 53° NE 13:01:38 10° SE visible
18 Mar 5.7 11:59:20 10° NNW 12:06:04 35° NE 12:14:01 10° ESE visible
19 Mar 6.2 11:13:34 10° N 11:19:13 23° NE 11:25:43 10° E visible
20 Mar 4.8 02:54:14 10° S 02:54:33 12° S 02:54:33 12° S visible
20 Mar 6.4 10:28:15 10° N 10:32:11 15° NE 10:36:30 10° ENE visible
20 Mar 4.8 12:16:38 10° NNW 12:24:12 63° ENE 12:33:19 10° SE visible
21 Mar 4.1 02:09:26 10° SSE 02:12:10 16° ESE 02:12:10 16° ESE visible
21 Mar 4.8 03:58:05 10° WSW 03:59:43 21° WSW 03:59:43 21° WSW visible
21 Mar 5.4 11:30:31 10° NNW 11:37:34 41° NE 11:45:57 10° ESE visible
22 Mar 2.7 03:11:20 10° SW 03:15:44 77° WNW 03:19:05 20° NNE visible
22 Mar 5.9 10:44:37 10° N 10:50:47 27° NE 10:57:58 10° ESE visible
22 Mar 4.3 12:34:21 10° NW 12:42:08 73° WSW 12:51:26 10° SSE visible
23 Mar 2.8 02:25:14 10° S 02:29:28 49° ESE 02:34:12 10° NE visible
23 Mar 5.5 04:17:32 10° W 04:20:31 17° NW 04:23:49 10° N visible
23 Mar 6.4 09:59:03 10° N 10:03:50 18° NE 10:09:11 10° E visible
23 Mar 4.4 11:47:56 10° NNW 11:55:37 75° ENE 12:04:54 10° SE visible
